FW6320 Weather Reports


Display with metric or nautical units.
time (UTC)temp
F
wind
direction
speed
MPH
gust
MPH
rain 1hr
in
rain 24hr
in
rain mn
in
humidity
%
barometer
mb
20260502152017 67 0 0.0 4.0 0.00 0.00 0.00 58 1022.2
20260502151538 67 0 0.0 4.0 0.00 0.00 0.00 58 1022.3
20260502151017 66 286 1.0 4.0 0.00 0.00 0.00 58 1022.3
20260502150519 66 0 0.0 3.0 0.00 0.00 0.00 61 1022.3
20260502130520 51 0 0.0 0.0 0.00 0.00 0.00 94 1021.6
20260502123519 48 0 0.0 0.0 0.00 0.00 0.00 93 1021.2
20260502123035 48 0 0.0 0.0 0.00 0.00 0.00 93 1021.1
20260502122520 48 0 0.0 0.0 0.00 0.00 0.00 92 1021.0
20260502122022 48 0 0.0 0.0 0.00 0.00 0.00 92 1020.9
20260502121535 48 0 0.0 0.0 0.00 0.00 0.00 93 1020.8
20260502121018 48 0 0.0 0.0 0.00 0.00 0.00 93 1020.7
20260502120519 48 0 0.0 0.0 0.00 0.00 0.00 93 1020.6
20260502115522 48 0 0.0 2.0 0.00 0.00 0.00 93 1020.5
20260502115020 48 0 0.0 2.0 0.00 0.00 0.00 93 1020.5
20260502114539 47 0 0.0 1.0 0.00 0.00 0.00 92 1020.4
20260502114016 48 0 0.0 1.0 0.00 0.00 0.00 92 1020.3
20260502113524 48 0 0.0 2.0 0.00 0.00 0.00 92 1020.3
20260502113036 48 0 0.0 4.0 0.00 0.00 0.00 93 1020.2
20260502112516 48 0 1.0 4.0 0.00 0.00 0.00 93 1020.1
20260502112021 48 0 0.0 4.0 0.00 0.00 0.00 93 1020.1
20260502111535 48 0 1.0 4.0 0.00 0.00 0.00 93 1020.0
20260502111020 48 0 0.0 0.0 0.00 0.00 0.00 93 1019.9
20260502110520 47 0 0.0 0.0 0.00 0.00 0.00 93 1019.9
20260502110036 47 0 0.0 0.0 0.00 0.00 0.00 93 1019.9
20260502105520 46 0 0.0 0.0 0.00 0.00 0.00 92 1019.8
20260502105019 46 0 0.0 0.0 0.00 0.00 0.00 92 1019.8
20260502104535 46 0 0.0 0.0 0.00 0.00 0.00 92 1019.7
20260502104019 46 0 0.0 0.0 0.00 0.00 0.00 92 1019.7
20260502103517 46 0 0.0 0.0 0.00 0.00 0.00 91 1019.7
20260502103041 46 0 0.0 0.0 0.00 0.00 0.00 91 1019.6
20260502102519 47 0 0.0 0.0 0.00 0.00 0.00 91 1019.7
20260502102017 47 0 0.0 0.0 0.00 0.00 0.00 91 1019.7
20260502101535 48 0 0.0 0.0 0.00 0.00 0.00 91 1019.6
20260502101016 48 0 0.0 0.0 0.00 0.00 0.00 92 1019.6
20260502100519 48 0 0.0 0.0 0.00 0.00 0.00 92 1019.4
20260502091017 48 0 0.0 0.0 0.00 0.00 0.00 91 1019.3
20260502090518 48 0 0.0 0.0 0.00 0.00 0.00 91 1019.4
20260502071020 51 0 0.0 0.0 0.00 0.00 0.00 91 1019.7
20260502070518 51 0 0.0 0.0 0.00 0.00 0.00 91 1019.8
20260502070047 51 0 0.0 0.0 0.00 0.00 0.00 90 1019.7
20260502065516 51 0 0.0 0.0 0.00 0.00 0.00 90 1019.7
20260502065019 51 0 0.0 0.0 0.00 0.00 0.00 90 1019.6
20260502064542 51 0 0.0 0.0 0.00 0.00 0.00 90 1019.7
20260502064022 51 0 0.0 0.0 0.00 0.00 0.00 91 1019.6
20260502063519 51 0 0.0 0.0 0.00 0.00 0.00 91 1019.6
20260502063036 51 0 0.0 0.0 0.00 0.00 0.00 90 1019.7
20260502062516 52 0 0.0 0.0 0.00 0.00 0.00 90 1019.6
20260502062018 52 0 0.0 0.0 0.00 0.00 0.00 90 1019.6
20260502061538 52 0 0.0 0.0 0.00 0.00 0.00 90 1019.7
20260502061021 52 0 0.0 0.0 0.00 0.00 0.00 90 1019.7
20260502060516 52 0 0.0 0.0 0.00 0.00 0.00 90 1019.6
20260502060035 52 0 0.0 0.0 0.00 0.00 0.00 90 1019.6
20260502055519 52 0 0.0 0.0 0.00 0.00 0.00 90 1019.7
20260502055018 52 0 0.0 0.0 0.00 0.00 0.00 89 1019.6
20260502054535 52 0 0.0 0.0 0.00 0.00 0.00 89 1019.6
20260502054020 53 0 0.0 0.0 0.00 0.00 0.00 89 1019.5
20260502053519 53 0 0.0 0.0 0.00 0.00 0.00 89 1019.5
20260502053035 53 0 0.0 0.0 0.00 0.00 0.00 89 1019.4
20260502052517 53 0 0.0 0.0 0.00 0.00 0.00 89 1019.4
20260502052017 53 0 0.0 0.0 0.00 0.00 0.00 89 1019.5
20260502051542 53 0 0.0 0.0 0.00 0.00 0.00 89 1019.4
20260502051018 53 0 0.0 0.0 0.00 0.00 0.00 88 1019.3
20260502050517 54 0 0.0 0.0 0.00 0.00 0.00 88 1019.3
20260502050041 54 0 0.0 0.0 0.00 0.00 0.00 87 1019.2
20260502045516 54 0 0.0 0.0 0.00 0.00 0.00 87 1019.2
20260502045019 54 0 0.0 0.0 0.00 0.00 0.00 87 1019.2
20260502044539 55 0 0.0 0.0 0.00 0.00 0.00 87 1019.1
20260502044015 55 0 0.0 0.0 0.00 0.00 0.00 87 1019.2
20260502043518 55 0 0.0 0.0 0.00 0.00 0.00 86 1019.3
20260502043041 55 0 0.0 0.0 0.00 0.00 0.00 86 1019.3
20260502042516 55 0 0.0 0.0 0.00 0.00 0.00 85 1019.3
20260502042018 56 0 0.0 0.0 0.00 0.00 0.00 85 1019.3
20260502041542 56 0 0.0 0.0 0.00 0.00 0.00 86 1019.3
20260502041015 56 0 0.0 0.0 0.00 0.00 0.00 86 1019.4
20260502040516 56 0 0.0 0.0 0.00 0.00 0.00 86 1019.4
20260502040035 56 0 0.0 0.0 0.00 0.00 0.00 86 1019.2
20260502035515 57 0 0.0 0.0 0.00 0.00 0.00 85 1019.2
20260502035016 57 0 0.0 0.0 0.00 0.00 0.00 85 1019.1
20260502034540 57 0 0.0 1.0 0.00 0.00 0.00 85 1019.1
20260502034019 57 0 0.0 1.0 0.00 0.00 0.00 85 1019.2
20260502033518 57 0 0.0 1.0 0.00 0.00 0.00 86 1019.2
20260502033040 57 0 0.0 1.0 0.00 0.00 0.00 86 1019.1
20260502032516 57 0 0.0 1.0 0.00 0.00 0.00 86 1019.2
20260502032016 57 0 0.0 1.0 0.00 0.00 0.00 86 1019.1
20260502031536 57 0 0.0 1.0 0.00 0.00 0.00 86 1018.9
20260502031018 57 0 0.0 1.0 0.00 0.00 0.00 86 1019.1
20260502030516 57 0 0.0 1.0 0.00 0.00 0.00 86 1019.0
20260502030035 57 0 0.0 1.0 0.00 0.00 0.00 86 1018.9
20260502025515 57 0 0.0 0.0 0.00 0.00 0.00 86 1018.8
20260502025015 57 0 0.0 0.0 0.00 0.00 0.00 85 1018.8
20260502024540 57 0 0.0 0.0 0.00 0.00 0.00 85 1018.6
20260502024017 58 0 0.0 0.0 0.00 0.00 0.00 85 1018.7
20260502023516 58 0 0.0 0.0 0.00 0.00 0.00 85 1018.6
20260502023041 58 0 0.0 0.0 0.00 0.00 0.00 85 1018.6
20260502022518 58 0 0.0 0.0 0.00 0.00 0.00 85 1018.5
20260502022016 58 0 0.0 0.0 0.00 0.00 0.00 84 1018.4
20260502021535 58 0 0.0 0.0 0.00 0.00 0.00 83 1018.4
20260502021018 59 0 0.0 0.0 0.00 0.00 0.00 83 1018.3
20260502020519 59 0 0.0 0.0 0.00 0.00 0.00 83 1018.3
20260502020036 59 0 0.0 0.0 0.00 0.00 0.00 82 1018.2
20260502015519 59 0 0.0 0.0 0.00 0.00 0.00 82 1018.0
20260502015017 59 0 0.0 0.0 0.00 0.00 0.00 81 1017.8
20260502014550 60 0 0.0 0.0 0.00 0.00 0.00 81 1017.8
20260502014017 60 0 0.0 0.0 0.00 0.00 0.00 80 1017.7
20260502013517 60 0 0.0 0.0 0.00 0.00 0.00 81 1017.5
20260502013035 60 0 0.0 0.0 0.00 0.00 0.00 81 1017.5
20260502012517 60 0 0.0 0.0 0.00 0.00 0.00 79 1017.3
20260502012017 60 0 0.0 0.0 0.00 0.00 0.00 79 1017.2
20260502011538 60 0 0.0 0.0 0.00 0.00 0.00 79 1017.2
20260502011017 61 0 0.0 0.0 0.00 0.00 0.00 80 1017.0
20260502010517 61 0 0.0 0.0 0.00 0.00 0.00 79 1017.0
20260502010036 61 0 0.0 0.0 0.00 0.00 0.00 77 1016.9
20260502005517 61 0 0.0 0.0 0.00 0.00 0.00 78 1016.9
20260502005021 61 0 0.0 0.0 0.00 0.00 0.00 78 1016.6
20260502004535 62 0 0.0 0.0 0.00 0.00 0.00 78 1016.5
20260502004021 62 0 0.0 0.0 0.00 0.00 0.00 78 1016.5
20260502003520 62 0 0.0 0.0 0.00 0.00 0.00 78 1016.5
20260502003035 62 0 0.0 0.0 0.00 0.00 0.00 77 1016.3
20260502002520 63 0 0.0 1.0 0.00 0.00 0.00 77 1016.3
20260502002021 63 0 0.0 1.0 0.00 0.00 0.00 77 1016.4
20260502001541 63 0 0.0 0.0 0.00 0.00 0.00 77 1016.2
20260502001020 63 0 0.0 0.0 0.00 0.00 0.00 75 1016.2
20260502000520 63 0 0.0 0.0 0.00 0.00 0.00 73 1016.2
20260502000052 63 0 0.0 0.0 0.00 0.00 0.00 72 1016.0
20260501235520 63 0 0.0 0.0 0.00 0.00 0.00 71 1015.9
20260501235020 63 0 0.0 1.0 0.00 0.00 0.00 69 1015.9
20260501234540 63 0 0.0 2.0 0.00 0.00 0.00 69 1015.9
20260501234021 63 0 0.0 2.0 0.00 0.00 0.00 68 1015.8
20260501233521 63 0 0.0 3.0 0.00 0.00 0.00 68 1015.8
20260501233039 63 0 1.0 3.0 0.00 0.00 0.00 69 1015.7
20260501232521 63 0 1.0 3.0 0.00 0.00 0.00 68 1015.6
20260501232025 63 42 1.0 3.0 0.00 0.00 0.00 68 1015.6
20260501231536 63 0 0.0 2.0 0.00 0.00 0.00 68 1015.7
20260501231020 63 0 0.0 3.0 0.00 0.00 0.00 67 1015.5
20260501230525 64 0 1.0 4.0 0.00 0.00 0.00 67 1015.5
20260501230034 64 0 0.0 4.0 0.00 0.00 0.00 68 1015.5
20260501225521 64 40 1.0 4.0 0.00 0.00 0.00 66 1015.5
20260501225020 64 0 1.0 4.0 0.00 0.00 0.00 66 1015.6
20260501224542 64 30 1.0 4.0 0.00 0.00 0.00 65 1015.6
20260501224021 64 29 1.0 4.0 0.00 0.00 0.00 66 1015.6
20260501223520 64 9 1.0 4.0 0.00 0.00 0.00 67 1015.5
20260501223041 64 0 2.0 5.0 0.00 0.00 0.00 66 1015.5
20260501222520 64 0 1.0 5.0 0.00 0.00 0.00 65 1015.5
20260501222019 64 17 3.0 5.0 0.00 0.00 0.00 65 1015.4
20260501221535 64 360 2.0 4.0 0.00 0.00 0.00 65 1015.4
20260501221021 64 355 1.0 5.0 0.00 0.00 0.00 66 1015.4
20260501220519 64 10 2.0 8.0 0.00 0.00 0.00 65 1015.3
20260501220035 64 334 1.0 8.0 0.00 0.00 0.00 64 1015.3
20260501215521 64 321 3.0 8.0 0.00 0.00 0.00 63 1015.3
20260501215032 65 30 2.0 8.0 0.00 0.00 0.00 64 1015.4
20260501214543 65 355 3.0 8.0 0.00 0.00 0.00 65 1015.3
20260501214020 65 53 2.0 5.0 0.00 0.00 0.00 66 1015.4
20260501213520 64 9 0.0 9.0 0.00 0.00 0.00 67 1015.6
20260501213041 64 5 2.0 9.0 0.00 0.00 0.00 64 1015.6
20260501212520 64 352 3.0 9.0 0.00 0.00 0.00 65 1015.6
20260501212020 64 5 2.0 5.0 0.00 0.00 0.00 67 1015.8
20260501211541 64 346 2.0 5.0 0.00 0.00 0.00 66 1016.0
20260501211023 63 345 0.0 8.0 0.00 0.00 0.00 67 1016.2
20260501210520 63 15 2.0 8.0 0.00 0.00 0.00 65 1016.3
20260501210038 63 5 2.0 9.0 0.00 0.00 0.00 66 1016.3
20260501205520 63 22 3.0 9.0 0.00 0.00 0.00 65 1016.4
20260501205020 63 5 1.0 7.0 0.00 0.00 0.00 67 1016.5
20260501204536 63 360 2.0 9.0 0.00 0.00 0.00 66 1016.6
20260501204021 63 11 4.0 9.0 0.00 0.00 0.00 66 1016.6
20260501203522 63 360 4.0 10.0 0.00 0.00 0.00 66 1016.6
20260501203036 63 355 5.0 10.0 0.00 0.00 0.00 65 1016.7
20260501202521 63 5 5.0 10.0 0.00 0.00 0.00 64 1016.8
20260501202022 63 12 5.0 10.0 0.00 0.00 0.00 64 1016.9
20260501201546 63 12 4.0 10.0 0.00 0.00 0.00 64 1016.8
20260501201020 63 337 3.0 12.0 0.00 0.00 0.00 65 1016.8
20260501200520 63 5 5.0 14.0 0.00 0.00 0.00 66 1016.7
20260501200041 62 5 6.0 14.0 0.00 0.00 0.00 64 1016.6
20260501195520 63 5 7.0 13.0 0.00 0.00 0.00 64 1016.6
20260501195020 63 355 4.0 10.0 0.00 0.00 0.00 65 1016.6
20260501194545 63 355 5.0 15.0 0.00 0.00 0.00 65 1016.5
20260501194019 63 335 6.0 15.0 0.00 0.00 0.00 65 1016.4
20260501193521 63 313 6.0 15.0 0.00 0.00 0.00 65 1016.4
20260501193039 63 16 7.0 15.0 0.00 0.00 0.00 65 1016.3
20260501192523 63 325 6.0 13.0 0.00 0.00 0.00 66 1016.3
20260501192020 63 313 5.0 11.0 0.00 0.00 0.00 67 1016.3
20260501191535 63 5 6.0 15.0 0.00 0.00 0.00 64 1016.6
20260501191021 63 360 5.0 15.0 0.00 0.00 0.00 64 1016.7
20260501190521 63 330 8.0 15.0 0.00 0.00 0.00 63 1016.6
20260501190035 63 334 5.0 17.0 0.00 0.00 0.00 63 1016.4
20260501185520 63 10 9.0 17.0 0.00 0.00 0.00 61 1016.1
20260501185017 63 5 6.0 13.0 0.00 0.00 0.00 63 1016.2
20260501184535 63 13 5.0 12.0 0.00 0.00 0.00 65 1016.1
20260501184018 63 315 5.0 12.0 0.00 0.00 0.00 65 1016.3
20260501183524 63 5 5.0 16.0 0.00 0.00 0.00 63 1016.5
20260501183047 64 355 9.0 16.0 0.00 0.00 0.00 62 1016.5
20260501182520 64 355 8.0 17.0 0.00 0.00 0.00 62 1016.3
20260501182021 64 347 8.0 17.0 0.00 0.00 0.00 63 1016.5
20260501181542 64 331 9.0 17.0 0.00 0.00 0.00 65 1016.4
20260501181018 63 355 5.0 16.0 0.00 0.00 0.00 68 1016.5
20260501180520 63 352 7.0 16.0 0.00 0.00 0.00 66 1016.6
20260501180045 63 342 6.0 16.0 0.00 0.00 0.00 68 1016.8
20260501175519 63 310 9.0 16.0 0.00 0.00 0.00 66 1016.9
20260501175017 63 5 9.0 14.0 0.00 0.00 0.00 67 1016.9
20260501174543 64 355 7.0 14.0 0.00 0.00 0.00 66 1017.1
20260501174022 63 350 6.0 14.0 0.00 0.00 0.00 67 1017.1
20260501173520 63 14 7.0 14.0 0.00 0.00 0.00 67 1017.1
20260501173035 63 17 7.0 14.0 0.00 0.00 0.00 68 1017.1
20260501172521 62 355 8.0 14.0 0.00 0.00 0.00 69 1017.3
20260501172022 62 348 5.0 13.0 0.00 0.00 0.00 72 1017.4
20260501171534 62 355 6.0 13.0 0.00 0.00 0.00 72 1017.4
20260501171020 62 336 6.0 13.0 0.00 0.00 0.00 74 1017.5
20260501170520 61 23 7.0 13.0 0.00 0.00 0.00 75 1017.8
20260501170048 60 5 5.0 11.0 0.00 0.00 0.00 75 1018.0
20260501165520 60 360 5.0 10.0 0.00 0.00 0.00 77 1018.1
20260501165020 60 13 3.0 10.0 0.00 0.00 0.00 78 1018.0
20260501164536 59 355 4.0 10.0 0.00 0.00 0.00 77 1017.8
20260501164019 59 332 3.0 10.0 0.00 0.00 0.00 78 1017.9
20260501163519 59 351 4.0 11.0 0.00 0.00 0.00 78 1017.9
20260501163040 59 352 5.0 12.0 0.00 0.00 0.00 78 1018.0
20260501162518 59 344 7.0 12.0 0.00 0.00 0.00 78 1018.0
20260501162017 59 26 5.0 11.0 0.00 0.00 0.00 77 1018.0
20260501161535 59 47 4.0 9.0 0.00 0.00 0.00 79 1018.1
20260501161020 59 352 3.0 12.0 0.00 0.00 0.00 80 1018.2
20260501160518 59 22 4.0 12.0 0.00 0.00 0.00 79 1018.1
20260501160034 58 16 4.0 10.0 0.00 0.00 0.00 79 1018.1
20260501155517 58 360 4.0 10.0 0.00 0.00 0.00 81 1017.8
20260501155021 58 5 4.0 10.0 0.00 0.00 0.00 80 1017.8
20260501154549 57 20 4.0 9.0 0.00 0.00 0.00 80 1017.9
20260501154022 57 355 3.0 9.0 0.00 0.00 0.00 80 1017.8
20260501153520 57 345 2.0 9.0 0.00 0.00 0.00 80 1017.9
20260501153040 57 348 4.0 9.0 0.00 0.00 0.00 80 1017.6